This is the latest recevied weather packets stored in our database for station/object M0XDC. If no packets are shown the sender has not sent any weather packets the latest 10 day(s).
| Time | Temp. | Humidity | Pressure | Rain* | Wind** | Luminosity | Snow |
|---|---|---|---|---|---|---|---|
| 1777817673 | 19.44° C | 56% | 1007.1 hPa | 0 mm | - | - | - |
| 1777815874 | 19.44° C | 57% | 1007.2 hPa | 0 mm | - | - | - |
| 1777814074 | 18.89° C | 58% | 1007.1 hPa | 0 mm | - | - | - |
| 1777812274 | 18.33° C | 61% | 1007.2 hPa | 0 mm | - | - | - |
| 1777810474 | 17.78° C | 61% | 1007.2 hPa | 0 mm | - | - | - |
| 1777808674 | 18.33° C | 59% | 1007.3 hPa | 0 mm | - | - | - |
| 1777806874 | 18.33° C | 61% | 1007.2 hPa | 0 mm | - | - | - |
| 1777805074 | 16.67° C | 63% | 1007.3 hPa | 0 mm | - | - | - |
| 1777803274 | 16.67° C | 67% | 1007.4 hPa | 0 mm | - | - | - |
| 1777801474 | 16.11° C | 67% | 1007.6 hPa | 0 mm | - | - | - |
| 1777799674 | 15.56° C | 69% | 1007.3 hPa | 0 mm | - | - | - |
| 1777797874 | 15° C | 73% | 1007.6 hPa | 0 mm | - | - | - |
| 1777796073 | 15° C | 74% | 1007.5 hPa | 0 mm | - | - | - |
| 1777794274 | 14.44° C | 78% | 1007.3 hPa | 0 mm | - | - | - |
| 1777792474 | 13.33° C | 83% | 1007.4 hPa | 0 mm | - | - | - |
| 1777790673 | 12.78° C | 84% | 1007.4 hPa | 0 mm | - | - | - |
| 1777788874 | 13.33° C | 85% | 1007.3 hPa | 0 mm | - | - | - |
| 1777787074 | 12.78° C | 87% | 1007.3 hPa | 0 mm | - | - | - |
| 1777785274 | 12.22° C | 87% | 1007 hPa | 0 mm | - | - | - |
| 1777783474 | 12.22° C | 89% | 1007.1 hPa | 0 mm | - | - | - |
| 1777781674 | 12.22° C | 91% | 1007.3 hPa | 0 mm | - | - | - |
| 1777779874 | 12.22° C | 91% | 1007.1 hPa | 0.25 mm | - | - | - |
| 1777778074 | 12.22° C | 92% | 1007.3 hPa | 0.25 mm | - | - | - |
| 1777776274 | 12.22° C | 92% | 1007.4 hPa | 0 mm | - | - | - |
| 1777774474 | 12.22° C | 92% | 1007.9 hPa | 0 mm | - | - | - |
* Rain latest hour (hover to see other rain measurements)
** Current wind speed in m/s (hover to see current wind gust speed)